DW5582 Weather Reports


time (UTC)temp
C
wind
direction
speed
KPH
gust
KPH
rain 1hr
cm
rain 24hr
cm
rain mn
cm
humidity
%
barometer
mb
20260904213021 13 283 0.0 9.7 0.00 0.18 0.18 85 1020.2
20260904211524 13 283 0.0 11.3 0.00 0.18 0.18 85 1020.1
20260904210030 14 284 0.0 9.7 0.00 0.18 0.18 84 1020.0
20260904204519 14 284 1.6 6.4 0.00 0.18 0.18 84 1019.9
20260904203017 14 284 3.2 9.7 0.00 0.18 0.18 83 1019.8
20260904201523 14 275 0.0 9.7 0.00 0.18 0.18 82 1019.7
20260904200031 15 274 0.0 9.7 0.00 0.18 0.18 82 1019.5
20260904194533 15 265 4.8 16.1 0.00 0.18 0.18 81 1019.2
20260904193010 15 303 4.8 19.3 0.00 0.18 0.18 81 1019.1
20260904191519 15 296 6.4 19.3 0.00 0.18 0.18 81 1018.8
20260904190024 16 247 4.8 17.7 0.00 0.18 0.18 80 1018.8
20260904184531 16 298 3.2 25.7 0.00 0.18 0.18 79 1018.6
20260904183034 16 295 6.4 29.0 0.00 0.18 0.18 78 1018.5
20260904181515 16 281 8.0 16.1 0.00 0.18 0.18 78 1018.5
20260904180021 16 262 9.7 20.9 0.00 0.18 0.18 78 1018.3
20260904174529 16 285 6.4 19.3 0.00 0.18 0.18 78 1018.1
20260904173030 16 284 4.8 24.1 0.00 0.18 0.18 77 1018.1
20260904171542 16 309 9.7 24.1 0.00 0.18 0.18 77 1018.0
20260904170018 16 284 14.5 29.0 0.00 0.18 0.18 77 1017.9
20260904164526 16 267 12.9 30.6 0.00 0.18 0.18 77 1017.9
20260904163033 17 252 9.7 24.1 0.00 0.18 0.18 77 1017.7
20260904161532 17 284 11.3 20.9 0.00 0.18 0.18 76 1017.7
20260904160036 17 257 9.7 24.1 0.00 0.18 0.18 75 1017.8
20260904154520 17 259 11.3 35.4 0.00 0.18 0.18 75 1017.6
20260904153031 17 306 9.7 33.8 0.00 0.18 0.18 75 1017.5
20260904151531 17 303 12.9 30.6 0.00 0.18 0.18 75 1017.6
20260904150040 17 260 12.9 29.0 0.00 0.18 0.18 75 1017.5
20260904144534 17 225 14.5 25.7 0.00 0.18 0.18 74 1017.3
20260904143031 18 279 11.3 25.7 0.00 0.18 0.18 73 1017.3
20260904141504 18 273 14.5 29.0 0.00 0.18 0.18 73 1017.1
20260904140008 18 286 11.3 25.7 0.00 0.18 0.18 73 1016.9
20260904134511 18 285 9.7 19.3 0.00 0.18 0.18 74 1016.9
20260904133026 17 302 4.8 22.5 0.00 0.18 0.18 73 1016.8
20260904131523 17 302 11.3 29.0 0.00 0.18 0.18 71 1016.7
20260904130005 17 269 12.9 25.7 0.00 0.18 0.18 76 1016.6
20260904124508 17 306 14.5 25.7 0.00 0.18 0.18 75 1016.2
20260904123014 17 286 6.4 30.6 0.00 0.18 0.18 74 1016.4
20260904121523 17 309 12.9 37.0 0.00 0.18 0.18 72 1016.2
20260904120026 17 249 12.9 27.4 0.00 0.18 0.18 73 1015.9
20260904114506 17 253 4.8 29.0 0.00 0.18 0.18 76 1015.6
20260904113021 17 290 17.7 38.6 0.00 0.18 0.18 77 1015.5
20260904111520 17 283 8.0 29.0 0.00 0.18 0.18 79 1015.3
20260904110027 17 262 14.5 33.8 0.00 0.18 0.18 80 1015.2
20260904104533 17 270 8.0 32.2 0.00 0.18 0.18 84 1014.9
20260904103010 17 302 11.3 27.4 0.00 0.18 0.18 86 1015.0
20260904101518 17 294 6.4 30.6 0.00 0.18 0.18 88 1014.7
20260904100023 17 277 8.0 29.0 0.00 0.18 0.18 89 1014.5
20260904094534 17 289 9.7 25.7 0.00 0.18 0.18 91 1014.6
20260904093029 16 244 14.5 29.0 0.00 0.18 0.18 92 1014.7
20260904091512 16 248 9.7 25.7 0.00 0.18 0.18 93 1014.2
20260904090019 16 309 9.7 22.5 0.00 0.18 0.18 93 1014.0
20260904084525 16 290 14.5 27.4 0.00 0.18 0.18 93 1013.7
20260904083029 16 305 16.1 32.2 0.00 0.18 0.18 93 1014.1
20260904081530 16 292 16.1 32.2 0.00 0.18 0.18 93 1013.8
20260904080032 16 295 12.9 30.6 0.00 0.18 0.18 93 1013.6
20260904074526 16 285 11.3 25.7 0.00 0.18 0.18 93 1013.4
20260904073049 16 284 12.9 30.6 0.00 0.15 0.15 93 1013.3
20260904071541 16 296 11.3 33.8 0.00 0.15 0.15 93 1013.2
20260904070031 16 289 8.0 33.8 0.00 0.15 0.15 93 1013.0
20260904064520 16 277 11.3 30.6 0.03 0.15 0.15 93 1012.8
20260904063025 17 288 14.5 35.4 0.05 0.15 0.15 92 1012.8
20260904061532 17 278 16.1 38.6 0.08 0.13 0.13 92 1012.5
20260904060035 17 300 12.9 33.8 0.08 0.13 0.13 92 1012.3
20260904054530 17 291 11.3 32.2 0.08 0.10 0.10 91 1012.1
20260904053025 18 290 19.3 48.3 0.08 0.08 0.08 90 1011.8
20260904051534 19 242 12.9 25.7 0.05 0.05 0.05 91 1010.8
20260904050035 19 252 8.0 30.6 0.03 0.03 0.03 90 1011.0
20260904044512 19 217 16.1 37.0 0.00 0.00 0.00 90 1011.1
20260904043018 19 243 11.3 40.2 0.00 0.00 0.00 89 1011.1
20260904041526 19 237 11.3 37.0 0.00 0.00 0.00 89 1011.0
20260904040032 19 258 9.7 30.6 0.00 0.00 0.00 90 1011.1
20260904034533 19 231 9.7 27.4 0.00 0.00 0.00 89 1011.2
20260904033014 19 216 11.3 35.4 0.00 0.00 0.00 90 1011.3
20260904031521 19 238 17.7 40.2 0.00 0.00 0.00 90 1011.6
20260904030028 19 263 16.1 40.2 0.00 0.00 0.00 90 1011.5
20260904024530 19 223 17.7 41.8 0.00 0.00 0.00 90 1011.7
20260904023024 19 201 14.5 33.8 0.00 0.00 0.00 90 1012.1
20260904021532 19 225 19.3 35.4 0.00 0.00 0.00 89 1012.5
20260904020024 20 254 8.0 29.0 0.00 0.00 0.00 88 1012.7
20260904014529 19 166 12.9 30.6 0.00 0.00 0.00 87 1012.8
20260904013032 19 263 11.3 33.8 0.00 0.00 0.00 87 1012.8
20260904011521 19 218 12.9 33.8 0.00 0.00 0.00 87 1012.9
20260904010020 19 254 14.5 30.6 0.00 0.00 0.00 86 1013.0
20260904004530 19 199 12.9 29.0 0.00 0.00 0.00 86 1013.1
20260904003033 19 186 12.9 29.0 0.00 0.00 0.00 86 1013.3
20260904001531 19 254 12.9 29.0 0.00 0.00 0.00 86 1013.4
20260904000043 19 205 11.3 27.4 0.00 0.00 0.00 85 1013.6
20260903234524 19 247 9.7 24.1 0.00 0.00 0.00 85 1013.8
20260903233030 19 221 8.0 27.4 0.00 0.00 0.00 85 1014.2
20260903231531 19 232 8.0 24.1 0.00 0.00 0.00 84 1014.3
20260903230034 19 232 11.3 32.2 0.00 0.00 0.00 85 1014.5
20260903224537 19 229 16.1 32.2 0.00 0.00 0.00 85 1014.3
20260903223028 19 232 12.9 29.0 0.00 0.00 0.00 86 1014.7
20260903221531 19 257 8.0 29.0 0.00 0.00 0.00 87 1015.2
20260903220033 18 239 8.0 22.5 0.00 0.00 0.00 87 1015.5
20260903214536 18 228 6.4 20.9 0.00 0.00 0.00 87 1015.4